sat.trackr.live / text

‹ back to catalog

STARLINK-30312

NORAD 57641 · 2023-122K

PAYLOAD ACTIVE UNKNOWN

§ Identity

Operator
Country
US
Launch date
2023-08-17
Launch site
AFETR
Launch vehicle
Mass (kg)
RCS (m²)

Purposes: comms

External: N2YO · Heavens-Above · Gunter

§ Orbital elements

Epoch: 2026-09-20T21:07:42.925152Z

Period
94.27 min
Inclination
43.0020°
Eccentricity
0.0001434
Mean motion
15.27575975 rev/d
Perigee alt
482.1 km
Apogee alt
484.0 km
Semi-major
6,861.2 km
B*
1.8525e-5
RAAN
69.7591°
Arg perigee
267.0099°
Mean anomaly
93.0589°
Rev number
17,206

§ Raw data

STARLINK-303121 57641U 23122K   26263.88035793  .00000248  00000+0  18525-4 0  99932 57641  43.0020  69.7591 0001434 267.0099  93.0589 15.27575975172069

JSON: /api/v1/satellites/57641 · /tle

For live sub-satellite position, see the globe view (requires WebGL).

§ Visibility from observer

Set your observer location to see the next 7 days of passes ≥ 10°. The values pass through the URL so the page stays shareable.

No JS? Fill the form by hand. The geolocation button needs JavaScript.